Tacoma, WA

2:50 PM PST on February 13, 2016 (GMT -0800)
McChord Air Force Base

Weather History for KTCM - January, 2014

Change the Weather History Date:

Friday, January 17, 2014

  Actual Average Record
Temperature  
Mean Temperature 37 °F -  
Max Temperature 39 °F 45 °F 57 °F (2005)
Min Temperature 35 °F 33 °F 17 °F (1984)
Degree Days  
Heating Degree Days 28    
Moisture  
Dew Point 38 °F    
Average Humidity 100    
Maximum Humidity 100    
Minimum Humidity 100    
Precipitation  
Precipitation 0.00 in - - ()
Sea Level Pressure  
Sea Level Pressure 30.28 in    
Wind  
Wind Speed 3 mph (ENE)    
Max Wind Speed 7 mph    
Max Gust Speed -    
Visibility 1 miles    
Events Fog    
Averages and records for this station are not official NWS values.
T = Trace of Precipitation, MM = Missing Value Source: NWS Daily Summary

Daily Weather History Graph

Daily Weather History Graph

Search for Another Location

Airport or City:

Trip Planner

Search our weather history database for the weather conditions in past years. The results will help you decide how hot, cold, wet, or windy it might be!

Date:

Astronomy

Jan. 17, 2014 Rise Set
Actual Time 7:50 AM PST 4:50 PM PST
Civil Twilight 7:16 AM PST 5:24 PM PST
Nautical Twilight 6:38 AM PST 6:02 PM PST
Astronomical Twilight 6:01 AM PST 6:38 PM PST
Moon 6:52 PM PST (1/17) 8:12 AM PST (1/17)
Length of Visible Light 10h 08m
Length of Day
9h 00m
Full, 98% of the Moon is Illuminated
Jan 17
Full
Jan 23
Last Quarter
Jan 30
New
Feb 6
First Quarter
Feb 14
Full

Hourly Weather History & Observations

Time (PST) Temp. Windchill Dew Point Humidity Pressure Visibility Wind Dir Wind Speed Gust Speed Precip Events Conditions
12:17 AM 39.2 °F - 39.2 °F 100% 30.36 in 0.8 mi ENE 2.3 mph - N/A   Mist
12:18 AM 39.2 °F - 39.2 °F 100% 30.36 in 0.8 mi East 2.3 mph - N/A   Mist
12:23 AM 39.2 °F - 39.2 °F 100% 30.35 in 0.8 mi East 2.3 mph - N/A   Mist
12:30 AM 39.2 °F - 39.2 °F 100% 30.35 in 0.8 mi Variable 2.3 mph - N/A   Mist
12:40 AM 39.2 °F - 39.2 °F 100% 30.35 in 0.8 mi East 2.3 mph - N/A   Mist
12:58 AM 38.8 °F - 38.8 °F 100% 30.37 in 0.8 mi ENE 1.2 mph - N/A   Mist
1:03 AM 39.2 °F 35.9 °F 39.2 °F 100% 30.35 in 0.5 mi NNE 4.6 mph - N/A Fog Fog
1:13 AM 39.2 °F - 39.2 °F 100% 30.35 in 0.8 mi NE 1.2 mph - N/A   Mist
1:28 AM 39.2 °F - 39.2 °F 100% 30.34 in 0.5 mi Variable 2.3 mph - N/A Fog Fog
1:33 AM 39.2 °F 37.0 °F 39.2 °F 100% 30.34 in 0.8 mi NNE 3.5 mph - N/A   Mist
1:38 AM 39.2 °F - 39.2 °F 100% 30.34 in 0.5 mi NE 2.3 mph - N/A Fog Fog
1:43 AM 39.2 °F 37.0 °F 39.2 °F 100% 30.34 in 0.5 mi Variable 3.5 mph - N/A Fog Fog
1:53 AM 39.2 °F 35.9 °F 39.2 °F 100% 30.35 in 0.5 mi ENE 4.6 mph - N/A Fog Fog
1:58 AM 38.7 °F 35.2 °F 38.7 °F 100% 30.36 in 0.5 mi NE 4.6 mph - N/A Fog Fog
2:03 AM 39.2 °F 35.9 °F 39.2 °F 100% 30.34 in 0.5 mi NE 4.6 mph - N/A Fog Fog
2:08 AM 39.2 °F 37.0 °F 39.2 °F 100% 30.34 in 0.5 mi ENE 3.5 mph - N/A Fog Fog
2:58 AM 39.0 °F - 39.0 °F 100% 30.35 in 0.5 mi East 2.3 mph - N/A Fog Fog
3:33 AM 39.2 °F 35.9 °F 39.2 °F 100% 30.33 in 0.5 mi NE 4.6 mph - N/A Fog Fog
3:43 AM 39.2 °F 35.9 °F 39.2 °F 100% 30.32 in 0.5 mi ENE 4.6 mph - N/A Fog Fog
3:53 AM 37.4 °F - 37.4 °F 100% 30.32 in 0.5 mi ESE 2.3 mph - N/A Fog Fog
3:58 AM 38.1 °F - 38.1 °F 100% 30.34 in 0.8 mi Variable 2.3 mph - N/A   Mist
4:08 AM 37.4 °F 33.8 °F 37.4 °F 100% 30.32 in 0.5 mi ENE 4.6 mph - N/A Fog Fog
4:13 AM 37.4 °F 33.8 °F 37.4 °F 100% 30.32 in 0.5 mi NE 4.6 mph - N/A Fog Fog
4:33 AM 37.4 °F 34.9 °F 37.4 °F 100% 30.32 in 0.5 mi Variable 3.5 mph - N/A Fog Fog
4:38 AM 37.4 °F - 37.4 °F 100% 30.32 in 0.5 mi ENE 2.3 mph - N/A Fog Fog
4:48 AM 37.4 °F 33.8 °F 37.4 °F 100% 30.31 in 0.5 mi ENE 4.6 mph - N/A Fog Fog
4:53 AM 37.4 °F - 37.4 °F 100% 30.31 in 0.5 mi ENE 1.2 mph - N/A Fog Fog
4:58 AM 37.9 °F - 37.9 °F 100% 30.33 in 0.5 mi ENE 2.3 mph - N/A Fog Fog
5:03 AM 37.4 °F 34.9 °F 37.4 °F 100% 30.31 in 0.5 mi East 3.5 mph - N/A Fog Fog
5:08 AM 37.4 °F - 37.4 °F 100% 30.31 in 0.8 mi Variable 2.3 mph - N/A   Mist
5:38 AM 39.2 °F 35.0 °F 39.2 °F 100% 30.31 in 0.5 mi NE 5.8 mph - N/A Fog Fog
5:43 AM 39.2 °F 37.0 °F 39.2 °F 100% 30.31 in 0.5 mi NE 3.5 mph - N/A Fog Fog
5:58 AM 39.2 °F 35.9 °F 39.2 °F 100% 30.33 in 0.5 mi ENE 4.6 mph - N/A Fog Fog
6:03 AM 39.2 °F 37.0 °F 39.2 °F 100% 30.31 in 0.5 mi NE 3.5 mph - N/A Fog Fog
6:08 AM 39.2 °F 37.0 °F 39.2 °F 100% 30.30 in 0.8 mi ENE 3.5 mph - N/A   Mist
6:33 AM 39.2 °F 35.9 °F 39.2 °F 100% 30.30 in 0.5 mi NNE 4.6 mph - N/A Fog Fog
6:38 AM 37.4 °F 34.9 °F 37.4 °F 100% 30.30 in 0.5 mi ENE 3.5 mph - N/A Fog Fog
6:58 AM 37.9 °F - 37.9 °F 100% 30.32 in 0.8 mi ENE 2.3 mph - N/A   Mist
7:13 AM 37.4 °F 32.8 °F 37.4 °F 100% 30.30 in 0.5 mi NNE 5.8 mph - N/A Fog Fog
7:28 AM 37.4 °F 33.8 °F 37.4 °F 100% 30.30 in 0.5 mi Variable 4.6 mph - N/A Fog Fog
7:33 AM 37.4 °F 32.8 °F 37.4 °F 100% 30.30 in 0.5 mi NNE 5.8 mph - N/A Fog Fog
7:38 AM 37.4 °F 33.8 °F 37.4 °F 100% 30.29 in 0.5 mi NNE 4.6 mph - N/A Fog Fog
7:48 AM 37.4 °F 32.8 °F 37.4 °F 100% 30.29 in 0.2 mi NE 5.8 mph - N/A Fog Fog
7:58 AM 37.4 °F 33.8 °F 37.4 °F 100% 30.31 in 0.2 mi Variable 4.6 mph - N/A Fog Fog
8:13 AM 37.4 °F 33.8 °F 37.4 °F 100% 30.29 in 0.2 mi NE 4.6 mph - N/A Fog Fog
8:23 AM 37.4 °F 33.8 °F 37.4 °F 100% 30.29 in 0.2 mi Variable 4.6 mph - N/A Fog Fog
8:33 AM 37.4 °F 34.9 °F 37.4 °F 100% 30.30 in 0.2 mi Variable 3.5 mph - N/A Fog Fog
8:38 AM 37.4 °F 34.9 °F 37.4 °F 100% 30.30 in 0.2 mi NE 3.5 mph - N/A Fog Fog
8:53 AM 37.4 °F 34.9 °F 37.4 °F 100% 30.30 in 0.2 mi Variable 3.5 mph - N/A Fog Fog
8:58 AM 37.2 °F - 37.2 °F 100% 30.32 in 0.2 mi ENE 2.3 mph - N/A Fog Fog
9:48 AM 37.4 °F 33.8 °F 37.4 °F 100% 30.30 in 0.2 mi NE 4.6 mph - N/A Fog Fog
9:58 AM 37.6 °F 33.1 °F 37.6 °F 100% 30.32 in 0.2 mi NE 5.8 mph - N/A Fog Fog
10:58 AM 37.9 °F 35.5 °F 37.9 °F 100% 30.31 in 0.2 mi NE 3.5 mph - N/A Fog Fog
11:53 AM 39.2 °F 35.0 °F 39.2 °F 100% 30.28 in 0.5 mi NNE 5.8 mph - N/A Fog Fog
11:58 AM 38.5 °F 33.4 °F 38.5 °F 100% 30.30 in 0.5 mi NNE 6.9 mph - N/A Fog Fog
12:03 PM 39.2 °F 34.2 °F 39.2 °F 100% 30.28 in 0.8 mi North 6.9 mph - N/A   Overcast
12:08 PM 39.2 °F 35.0 °F 39.2 °F 100% 30.27 in 0.8 mi NE 5.8 mph - N/A   Overcast
12:23 PM 39.2 °F 35.0 °F 39.2 °F 100% 30.27 in 0.5 mi NNE 5.8 mph - N/A Fog Fog
12:38 PM 39.2 °F 35.0 °F 39.2 °F 100% 30.27 in 0.8 mi NE 5.8 mph - N/A   Overcast
12:48 PM 39.2 °F 37.0 °F 39.2 °F 100% 30.26 in 0.5 mi NNE 3.5 mph - N/A Fog Fog
12:53 PM 39.2 °F - 39.2 °F 100% 30.26 in 0.5 mi NE 2.3 mph - N/A Fog Fog
12:58 PM 38.5 °F 35.0 °F 38.5 °F 100% 30.28 in 0.8 mi ENE 4.6 mph - N/A   Overcast
1:03 PM 39.2 °F 35.0 °F 39.2 °F 100% 30.26 in 0.5 mi NE 5.8 mph - N/A Fog Fog
1:38 PM 39.2 °F 35.9 °F 39.2 °F 100% 30.24 in 0.8 mi NNE 4.6 mph - N/A   Overcast
1:43 PM 39.2 °F 35.9 °F 39.2 °F 100% 30.24 in 0.8 mi Variable 4.6 mph - N/A   Overcast
1:48 PM 39.2 °F 35.0 °F 39.2 °F 100% 30.23 in 1.0 mi NE 5.8 mph - N/A   Overcast
1:53 PM 39.2 °F 37.0 °F 39.2 °F 100% 30.23 in 0.8 mi Variable 3.5 mph - N/A   Overcast
1:58 PM 38.7 °F 35.2 °F 38.7 °F 100% 30.25 in 1.0 mi ENE 4.6 mph - N/A   Overcast
2:03 PM 39.2 °F 35.9 °F 39.2 °F 100% 30.23 in 1.2 mi NE 4.6 mph - N/A   Overcast
2:23 PM 39.2 °F - 39.2 °F 100% 30.23 in 1.5 mi Variable 2.3 mph - N/A   Overcast
2:38 PM 39.2 °F 37.0 °F 39.2 °F 100% 30.23 in 1.5 mi NE 3.5 mph - N/A   Overcast
2:43 PM 39.2 °F 37.0 °F 39.2 °F 100% 30.23 in 1.8 mi NNE 3.5 mph - N/A   Overcast
2:48 PM 39.2 °F 35.0 °F 39.2 °F 100% 30.23 in 3.0 mi North 5.8 mph - N/A   Overcast
2:58 PM 38.5 °F 34.1 °F 38.5 °F 100% 30.24 in 4.0 mi NNE 5.8 mph - N/A   Overcast
3:58 PM 38.5 °F 35.0 °F 38.5 °F 100% 30.25 in 5.0 mi East 4.6 mph - N/A   Overcast
4:58 PM 38.1 °F - 38.1 °F 100% 30.24 in 4.0 mi ESE 2.3 mph - N/A   Overcast
5:58 PM 37.8 °F 35.3 °F 37.8 °F 100% 30.23 in 6.0 mi NE 3.5 mph - N/A   Overcast
6:58 PM 37.9 °F - 37.9 °F 100% 30.23 in 7.0 mi SE 2.3 mph - N/A   Overcast
7:58 PM 37.8 °F - 37.8 °F 100% 30.22 in 4.0 mi South 2.3 mph - N/A   Overcast
8:48 PM 37.4 °F - 37.4 °F 100% 30.20 in 2.5 mi South 2.3 mph - N/A   Overcast
8:58 PM 37.8 °F - 37.8 °F 100% 30.22 in 2.5 mi SSW 2.3 mph - N/A   Overcast
9:08 PM 37.4 °F - 37.4 °F 100% 30.21 in 2.0 mi SW 2.3 mph - N/A   Overcast
9:18 PM 37.4 °F - 37.4 °F 100% 30.21 in 1.8 mi Variable 1.2 mph - N/A   Overcast
9:23 PM 37.4 °F - 37.4 °F 100% 30.22 in 1.2 mi Calm Calm - N/A   Overcast
9:33 PM 37.4 °F - 37.4 °F 100% 30.21 in 1.2 mi Calm Calm - N/A   Overcast
9:38 PM 37.4 °F - 37.4 °F 100% 30.21 in 1.2 mi SW 2.3 mph - N/A   Overcast
9:43 PM 37.4 °F - 37.4 °F 100% 30.22 in 1.5 mi SW 2.3 mph - N/A   Overcast
9:48 PM 37.4 °F - 37.4 °F 100% 30.22 in 1.2 mi SW 2.3 mph - N/A   Overcast
9:58 PM 37.2 °F - 37.2 °F 100% 30.23 in 1.0 mi South 2.3 mph - N/A   Overcast
10:03 PM 37.4 °F 34.9 °F 37.4 °F 100% 30.21 in 0.8 mi Variable 3.5 mph - N/A   Overcast
10:28 PM 37.4 °F - 37.4 °F 100% 30.20 in 1.0 mi East 1.2 mph - N/A   Overcast
10:33 PM 37.4 °F - 37.4 °F 100% 30.21 in 1.2 mi Variable 2.3 mph - N/A   Overcast
10:53 PM 35.6 °F - 35.6 °F 100% 30.21 in 1.0 mi SSE 2.3 mph - N/A   Overcast
10:58 PM 36.3 °F - 36.3 °F 100% 30.23 in 1.0 mi South 2.3 mph - N/A   Overcast
11:13 PM 35.6 °F - 35.6 °F 100% 30.21 in 1.0 mi SSE 2.3 mph - N/A   Overcast
11:18 PM 35.6 °F - 35.6 °F 100% 30.21 in 1.0 mi SSE 2.3 mph - N/A   Overcast
11:28 PM 35.6 °F - 35.6 °F 100% 30.21 in 1.2 mi South 2.3 mph - N/A   Overcast
11:33 PM 35.6 °F 32.8 °F 35.6 °F 100% 30.21 in 1.0 mi South 3.5 mph - N/A   Overcast
11:38 PM 35.6 °F 32.8 °F 35.6 °F 100% 30.20 in 1.0 mi South 3.5 mph - N/A   Overcast
11:43 PM 35.6 °F - 35.6 °F 100% 30.21 in 1.0 mi SSW 2.3 mph - N/A   Overcast
11:53 PM 35.6 °F - 35.6 °F 100% 30.21 in 1.5 mi SSW 2.3 mph - N/A   Overcast
11:58 PM 35.6 °F - 35.6 °F 100% 30.23 in 1.8 mi Calm Calm - N/A   Overcast